Notices

What's New in latest Release from April 7th, 2021:

- Updated Glossary, including Speed of Maximum Gust, and Total Hourly Precipitation

- Updated national and regional climate services offices contacts and prices information

- Addition of station inventory lists for 1981-2010, 1971-2000, and 1961-1990 Normals.

If you haven't already, please take our survey and provide feedback about our website: https://eccc.sondage-survey.ca/f/LanguageSelection.aspx?s=442ca660-fcf1-47c0-95a9-59707d6fd709

Hourly Data Report for May 02, 2020

TRENTON A
ONTARIO
Current Station Operator: DND

44°07'00.000" N
77°32'00.000" W
86.30 m
6158875
71621
YTR

Download Data

Hourly Data (May 2020)
Hourly Data Report for May 2, 2020
TIME
LST
Temp Definition
°C
Dew Point Definition
°C
Rel Hum Definition
%
Precip. Amount Definition
mm

Wind Dir Definition
10's deg

Wind Spd Definition
km/h
Visibility Definition
km
Stn Press Definition
kPa
Hmdx Definition


Wind Chill Definition


Weather Definition


00:00 10.0 1.8 57   31 13 24.1 100.46     Clear
01:00 8.9 1.3 59   32 9 24.1 100.43     Clear
02:00 8.9 0.8 57   33 11 24.1 100.41     Mainly Clear
03:00 8.2 0.8 60   32 15 24.1 100.42     Mainly Clear
04:00 7.9 0.8 61   24 11 24.1 100.46     Mainly Clear
05:00 7.6 2.3 69   21 5 24.1 100.47     Mainly Clear
06:00 7.8 4.2 78   21 4 24.1 100.52     Mainly Clear
07:00 9.3 2.9 64   25 4 24.1 100.55     Mainly Clear
08:00 11.1 4.4 63   20 4 24.1 100.55     Mainly Clear
09:00 12.2 5.3 63   19 13 24.1 100.53     Mainly Clear
10:00 12.3 5.4 63   20 15 24.1 100.49     Mostly Cloudy
11:00 13.5 5.8 60   20 18 24.1 100.44     Cloudy
12:00 14.2 3.9 50   22 24 24.1 100.38     Cloudy
13:00 14.2 2.7 46   23 21 24.1 100.35     Cloudy
14:00 14.3 4.7 52   23 17 24.1 100.29     Cloudy
15:00 15.8 5.6 51   21 15 24.1 100.17     Cloudy
16:00 14.6 4.5 51   27 28 24.1 100.20     Rain Showers
17:00 13.0 8.1 72   5 4 24.1 100.14     Rain Showers
18:00 12.1 7.8 75   8 5 24.1 100.03     Rain Showers
19:00 11.3 7.7 79   10 8 24.1 100.00     Cloudy
20:00 10.9 8.0 82   8 9 24.1 99.92     Cloudy
21:00 11.7 6.8 72   12 11 24.1 99.84     Mostly Cloudy
22:00 10.9 7.5 80   10 4 24.1 99.76     Cloudy
23:00 9.6 6.9 83   6 9 24.1 99.61     Mostly Cloudy

Notes on Data Quality.

Legend

  • E = Estimated
  • M = Missing
  • NA = Not Available*
  • [empty] = Indicates an unobserved value
Date modified: